Weather History for KCNB - August, 2014

Change the Weather History Date:

Sunday, August 17, 2014

  Actual Average (KMML) Record (KMML)
Temperature  
Mean Temperature 78 °F -  
Max Temperature 85 °F 82 °F 97 °F (1955)
Min Temperature 70 °F 59 °F 44 °F (2012)
Cooling Degree Days 12    
Growing Degree Days 28 (Base 50)    
Moisture  
Dew Point 70 °F    
Average Humidity 83    
Maximum Humidity 96    
Minimum Humidity 59    
Precipitation  
Precipitation 0.01 in - - ()
Sea Level Pressure  
Sea Level Pressure 29.90 in    
Wind  
Wind Speed 2 mph (NW)    
Max Wind Speed 10 mph    
Max Gust Speed -    
Visibility 8 miles    
Events Rain , Thunderstorm    
Averages and records for this station are not official NWS values.
T = Trace of Precipitation, MM = Missing Value Source: NWS Daily Summary

Daily Weather History Graph

Daily Weather History Graph

Search for Another Location

Airport or City:

Trip Planner

Search our weather history database for the weather conditions in past years. The results will help you decide how hot, cold, wet, or windy it might be!

Date:

Astronomy

Aug. 17, 2014 Rise Set
Actual Time 6:29 AM CDT 8:27 PM CDT
Civil Twilight 5:58 AM CDT 8:59 PM CDT
Nautical Twilight 5:19 AM CDT 9:37 PM CDT
Astronomical Twilight 4:36 AM CDT 10:19 PM CDT
Moon No Moon Rise 2:36 PM CDT (8/17)
Length of Visible Light 15h 00m
Length of Day
13h 57m
Waning Gibbous, 48% of the Moon is Illuminated
Aug 17
Waning Gibbous
Aug 25
New
Sep 2
First Quarter
Sep 8
Full
Sep 15
Last Quarter

Hourly Weather History & Observations

Time (CDT) Temp. Heat Index Dew Point Humidity Pressure Visibility Wind Dir Wind Speed Gust Speed Precip Events Conditions
12:14 AM 73.6 °F - 71.1 °F 92% 29.90 in 7.0 mi Calm Calm - N/A   Overcast
12:34 AM 73.4 °F - 70.7 °F 91% 29.90 in 10.0 mi Calm Calm - N/A   Mostly Cloudy
12:54 AM 74.3 °F - 70.2 °F 87% 29.91 in 10.0 mi Calm Calm - N/A   Mostly Cloudy
1:14 AM 73.4 °F - 70.2 °F 90% 29.91 in 10.0 mi Calm Calm - N/A   Overcast
1:34 AM 73.2 °F - 70.0 °F 90% 29.91 in 10.0 mi Calm Calm - N/A   Mostly Cloudy
1:54 AM 73.0 °F - 69.3 °F 88% 29.91 in 10.0 mi Calm Calm - N/A   Scattered Clouds
2:14 AM 72.5 °F - 69.1 °F 89% 29.91 in 10.0 mi Calm Calm - N/A   Scattered Clouds
2:34 AM 72.3 °F - 68.9 °F 89% 29.90 in 10.0 mi SSE 3.5 mph - N/A Thunderstorm Mostly Cloudy
2:54 AM 71.6 °F - 68.9 °F 91% 29.90 in 7.0 mi Calm Calm - N/A   Mostly Cloudy
3:14 AM 72.7 °F - 69.1 °F 88% 29.89 in 10.0 mi SSW 4.6 mph - N/A   Mostly Cloudy
3:34 AM 73.4 °F - 68.9 °F 86% 29.90 in 10.0 mi SW 5.8 mph - N/A   Scattered Clouds
3:54 AM 73.4 °F - 68.5 °F 85% 29.90 in 10.0 mi Calm Calm - N/A   Scattered Clouds
4:14 AM 73.4 °F - 68.5 °F 85% 29.89 in 10.0 mi SSW 3.5 mph - N/A   Scattered Clouds
4:34 AM 73.4 °F - 68.7 °F 85% 29.90 in 10.0 mi SW 3.5 mph - N/A   Scattered Clouds
4:54 AM 73.4 °F - 68.9 °F 86% 29.90 in 10.0 mi Calm Calm - N/A   Mostly Cloudy
5:14 AM 72.7 °F - 68.9 °F 88% 29.90 in 10.0 mi Calm Calm - N/A Rain , Thunderstorm Light Thunderstorms and Rain
5:34 AM 71.8 °F - 69.3 °F 92% 29.89 in 10.0 mi Calm Calm - N/A   Overcast
5:54 AM 72.7 °F - 69.4 °F 90% 29.90 in 10.0 mi Calm Calm - N/A   Overcast
6:14 AM 73.0 °F - 68.9 °F 87% 29.90 in 10.0 mi SW 4.6 mph - N/A   Overcast
6:34 AM 72.5 °F - 68.5 °F 87% 29.91 in 10.0 mi WSW 5.8 mph - N/A   Mostly Cloudy
6:53 AM 72.1 °F - 68.5 °F 88% 29.91 in 10.0 mi WSW 4.6 mph - N/A   Overcast
7:14 AM 71.4 °F - 68.2 °F 89% 29.91 in 10.0 mi West 4.6 mph - N/A   Scattered Clouds
7:34 AM 70.3 °F - 68.0 °F 92% 29.91 in 7.0 mi WNW 3.5 mph - N/A   Scattered Clouds
7:54 AM 70.9 °F - 68.9 °F 93% 29.92 in 7.0 mi Calm Calm - N/A Thunderstorm Mostly Cloudy
8:14 AM 71.1 °F - 68.9 °F 93% 29.92 in 5.0 mi Calm Calm - N/A   Overcast
8:34 AM 72.0 °F - 69.8 °F 93% 29.91 in 7.0 mi West 5.8 mph - N/A   Overcast
8:54 AM 72.5 °F - 70.0 °F 92% 29.93 in 5.0 mi West 6.9 mph - N/A   Overcast
9:13 AM 72.7 °F - 70.3 °F 92% 29.92 in 5.0 mi WSW 4.6 mph - N/A   Overcast
9:34 AM 73.4 °F - 70.7 °F 91% 29.93 in 7.0 mi Calm Calm - N/A Thunderstorm Overcast
9:54 AM 73.6 °F - 70.7 °F 91% 29.94 in 7.0 mi ENE 3.5 mph - N/A   Overcast
10:13 AM 73.0 °F - 70.5 °F 92% 29.93 in 5.0 mi NNE 3.5 mph - N/A   Overcast
10:34 AM 74.8 °F - 71.2 °F 88% 29.93 in 5.0 mi Calm Calm - N/A   Overcast
10:53 AM 75.2 °F - 71.2 °F 87% 29.94 in 7.0 mi East 4.6 mph - N/A   Overcast
11:14 AM 76.5 °F - 71.2 °F 84% 29.94 in 7.0 mi ENE 3.5 mph - N/A   Overcast
11:33 AM 75.7 °F - 70.9 °F 85% 29.94 in 7.0 mi Calm Calm - N/A   Mostly Cloudy
11:54 AM 78.1 °F - 71.1 °F 79% 29.93 in 10.0 mi SSE 3.5 mph - N/A   Clear
12:14 PM 79.7 °F - 70.9 °F 74% 29.93 in 10.0 mi NE 4.6 mph - N/A   Mostly Cloudy
12:34 PM 79.9 °F - 71.6 °F 76% 29.92 in 10.0 mi ESE 3.5 mph - N/A   Mostly Cloudy
12:54 PM 80.1 °F 83.4 °F 70.5 °F 73% 29.92 in 10.0 mi Calm Calm - N/A   Mostly Cloudy
1:14 PM 79.9 °F - 70.7 °F 73% 29.92 in 10.0 mi Calm Calm - N/A   Overcast
1:34 PM 78.3 °F - 71.1 °F 78% 29.92 in 5.0 mi WNW 3.5 mph - 0.01 in Rain Rain
1:54 PM 79.3 °F - 73.0 °F 81% 29.92 in 7.0 mi WNW 3.5 mph - 0.01 in   Overcast
2:14 PM 81.9 °F 86.2 °F 71.2 °F 70% 29.91 in 10.0 mi NNW 4.6 mph - N/A   Scattered Clouds
2:34 PM 82.9 °F 87.5 °F 70.9 °F 67% 29.91 in 10.0 mi NW 5.8 mph - N/A   Mostly Cloudy
2:54 PM 81.9 °F 86.0 °F 70.7 °F 69% 29.91 in 10.0 mi NW 4.6 mph - N/A   Mostly Cloudy
3:14 PM 83.7 °F 87.5 °F 69.6 °F 62% 29.91 in 10.0 mi NNW 5.8 mph - N/A   Clear
3:34 PM 84.0 °F 87.6 °F 68.7 °F 60% 29.90 in 10.0 mi West 10.4 mph - N/A   Scattered Clouds
3:53 PM 84.7 °F 88.5 °F 68.9 °F 59% 29.90 in 10.0 mi WNW 6.9 mph - N/A   Clear
4:14 PM 85.1 °F 89.1 °F 69.3 °F 59% 29.90 in 10.0 mi NW 8.1 mph - N/A   Scattered Clouds
4:34 PM 84.9 °F 89.1 °F 69.4 °F 60% 29.90 in 10.0 mi NW 6.9 mph - N/A   Scattered Clouds
5:14 PM 84.2 °F 88.4 °F 70.0 °F 62% 29.87 in 10.0 mi NNE 3.5 mph - N/A   Mostly Cloudy
5:33 PM 82.8 °F 86.9 °F 70.5 °F 66% 29.86 in 10.0 mi NNE 4.6 mph - N/A   Mostly Cloudy
5:54 PM 83.3 °F 87.6 °F 70.5 °F 65% 29.83 in 10.0 mi ENE 3.5 mph - N/A   Scattered Clouds
6:14 PM 84.0 °F 88.7 °F 70.7 °F 64% 29.84 in 10.0 mi NNE 6.9 mph - N/A   Clear
6:33 PM 83.5 °F 87.7 °F 70.0 °F 64% 29.85 in 10.0 mi NNE 4.6 mph - N/A   Scattered Clouds
6:54 PM 81.5 °F 85.7 °F 71.2 °F 71% 29.85 in 10.0 mi North 3.5 mph - N/A   Scattered Clouds
7:14 PM 81.7 °F 85.6 °F 70.7 °F 69% 29.85 in 10.0 mi Calm Calm - N/A   Scattered Clouds
7:34 PM 79.0 °F - 72.1 °F 79% 29.86 in 10.0 mi NE 3.5 mph - N/A   Clear
7:54 PM 78.3 °F - 71.8 °F 80% 29.86 in 10.0 mi Calm Calm - N/A   Clear
8:14 PM 77.4 °F - 72.1 °F 84% 29.87 in 10.0 mi NNE 3.5 mph - N/A   Scattered Clouds
8:34 PM 76.5 °F - 72.5 °F 87% 29.87 in 10.0 mi NNE 5.8 mph - N/A   Mostly Cloudy
8:54 PM 75.4 °F - 72.5 °F 91% 29.89 in 10.0 mi North 3.5 mph - N/A   Scattered Clouds
9:14 PM 74.5 °F - 72.0 °F 92% 29.89 in 10.0 mi NNE 4.6 mph - N/A   Scattered Clouds
9:34 PM 73.4 °F - 71.6 °F 94% 29.90 in 7.0 mi Calm Calm - N/A   Clear
9:54 PM 73.4 °F - 71.6 °F 94% 29.89 in 5.0 mi Calm Calm - N/A   Scattered Clouds
10:14 PM 73.4 °F - 71.6 °F 94% 29.88 in 5.0 mi Calm Calm - N/A   Overcast
10:34 PM 73.0 °F - 71.6 °F 95% 29.88 in 5.0 mi Calm Calm - N/A   Overcast
10:54 PM 72.9 °F - 71.4 °F 95% 29.88 in 5.0 mi NW 4.6 mph - N/A   Overcast
11:14 PM 72.5 °F - 71.1 °F 95% 29.88 in 5.0 mi Calm Calm - N/A   Mostly Cloudy
11:34 PM 72.0 °F - 70.7 °F 96% 29.88 in 4.0 mi Calm Calm - N/A   Mostly Cloudy
11:54 PM 71.8 °F - 70.5 °F 96% 29.87 in 3.0 mi Calm Calm - N/A   Scattered Clouds